EW3591 Weather Reports


time (UTC)temp
F
wind
direction
speed
knots
gust
knots
rain 1hr
in
rain 24hr
in
rain mn
in
humidity
%
barometer
mb
20260904232537 74 0 0.0 0.0 0.00 0.00 0.00 74 1013.9
20260904232337 74 0 0.0 0.0 0.00 0.00 0.00 74 1013.8
20260904232136 74 0 0.0 0.9 0.00 0.00 0.00 74 1013.7
20260904231936 74 0 0.0 0.9 0.00 0.00 0.00 74 1013.8
20260904231736 74 0 0.0 0.9 0.00 0.00 0.00 74 1013.7
20260904231535 74 0 0.0 0.9 0.00 0.00 0.00 74 1013.7
20260904231335 74 109 0.0 0.9 0.00 0.00 0.00 74 1013.7
20260904231135 74 109 0.0 0.9 0.00 0.00 0.00 74 1013.7
20260904230934 74 109 0.0 0.9 0.00 0.00 0.00 74 1013.7
20260904230734 74 109 0.0 0.9 0.00 0.00 0.00 74 1013.8
20260904230534 74 109 0.0 0.9 0.00 0.00 0.00 74 1013.7
20260904230334 74 109 0.0 0.9 0.00 0.00 0.00 74 1013.7
20260904230133 74 109 0.0 0.9 0.00 0.00 0.00 74 1013.7
20260904225933 74 109 0.0 0.9 0.00 0.06 0.00 74 1013.8
20260904225733 74 0 0.0 0.9 0.00 0.06 0.00 74 1013.7
20260904225532 74 114 0.0 0.9 0.00 0.06 0.00 74 1013.7
20260904225332 74 114 0.0 0.9 0.00 0.06 0.00 74 1013.7
20260904225132 74 0 0.0 0.9 0.00 0.06 0.00 74 1013.7
20260904224931 74 114 0.0 0.9 0.00 0.06 0.00 74 1013.8
20260904224731 74 0 0.0 0.9 0.00 0.06 0.00 74 1013.9
20260904224531 74 114 0.0 0.9 0.00 0.06 0.00 74 1013.9
20260904224330 74 114 0.0 0.9 0.00 0.06 0.00 74 1014.0
20260904224130 74 114 0.0 0.9 0.00 0.06 0.00 74 1014.0
20260904223930 74 0 0.0 0.9 0.00 0.06 0.00 74 1014.0
20260904223729 74 114 0.0 0.9 0.00 0.06 0.00 73 1013.9
20260904223529 74 114 0.0 0.9 0.00 0.06 0.00 74 1013.8
20260904223329 74 113 0.0 0.9 0.00 0.06 0.00 73 1013.7
20260904223129 74 109 0.0 0.9 0.00 0.06 0.00 73 1013.7
20260904222928 74 89 0.0 0.9 0.00 0.06 0.00 74 1013.7
20260904222728 74 49 0.0 0.9 0.00 0.06 0.00 73 1013.6
20260904222528 74 49 0.0 0.9 0.00 0.06 0.00 73 1013.5
20260904222327 74 49 0.0 0.9 0.00 0.06 0.00 73 1013.5
20260904222127 74 49 0.0 0.9 0.00 0.06 0.00 73 1013.5
20260904221927 74 49 0.0 0.9 0.00 0.06 0.00 73 1013.5
20260904221726 74 49 0.0 0.9 0.00 0.06 0.00 73 1013.5
20260904221526 74 49 0.0 0.9 0.00 0.06 0.00 73 1013.4
20260904221326 74 49 0.0 0.9 0.00 0.06 0.00 73 1013.5
20260904221125 74 49 0.0 0.9 0.00 0.06 0.00 72 1013.5
20260904220925 74 49 0.0 0.9 0.00 0.06 0.00 72 1013.6
20260904220725 74 49 0.0 0.9 0.00 0.06 0.00 73 1013.5
20260904220525 74 49 0.0 2.6 0.00 0.06 0.00 72 1013.5
20260904220324 74 49 0.0 2.6 0.00 0.06 0.00 72 1013.5
20260904220124 74 0 0.0 2.6 0.00 0.06 0.00 72 1013.5
20260904215924 74 105 0.0 2.6 0.00 0.06 0.00 72 1013.5
20260904215723 74 71 0.9 2.6 0.00 0.06 0.00 72 1013.5
20260904215523 75 64 0.0 2.6 0.00 0.06 0.00 72 1013.6
20260904215323 75 94 0.0 1.7 0.00 0.06 0.00 72 1013.6
20260904215122 75 115 0.0 2.6 0.00 0.06 0.00 71 1013.5
20260904214922 75 134 0.0 3.5 0.00 0.06 0.00 71 1013.5
20260904214722 75 112 0.0 3.5 0.00 0.06 0.00 71 1013.4
20260904214521 75 101 0.0 3.5 0.00 0.06 0.00 71 1013.4
20260904214321 75 151 0.0 3.5 0.00 0.06 0.00 71 1013.3
20260904214121 75 250 0.0 3.5 0.00 0.06 0.00 71 1013.3
20260904213920 75 289 0.0 1.7 0.00 0.06 0.00 71 1013.3
20260904213720 75 232 0.0 1.7 0.00 0.06 0.00 70 1013.4
20260904213520 75 146 0.0 1.7 0.00 0.06 0.00 70 1013.3
20260904213320 76 105 0.0 1.7 0.00 0.06 0.00 69 1013.3
20260904213119 76 44 0.0 1.7 0.00 0.06 0.00 70 1013.3
20260904212919 76 43 0.0 0.9 0.00 0.06 0.00 70 1013.3
20260904212719 76 0 0.0 0.9 0.00 0.06 0.00 69 1013.2
20260904212518 76 30 0.0 0.9 0.00 0.06 0.00 69 1013.2
20260904212318 76 30 0.0 0.9 0.00 0.06 0.00 70 1013.1
20260904212118 76 30 0.0 0.9 0.00 0.06 0.00 70 1013.1
20260904211917 76 30 0.0 0.9 0.00 0.06 0.00 69 1013.1
20260904211717 76 30 0.0 0.9 0.00 0.06 0.00 69 1013.1
20260904211517 76 30 0.0 0.9 0.00 0.06 0.00 69 1013.0
20260904211316 76 0 0.0 0.9 0.00 0.06 0.00 69 1013.1
20260904211116 76 30 0.0 0.9 0.00 0.06 0.00 69 1013.1
20260904210916 76 30 0.0 0.9 0.00 0.06 0.00 69 1013.2
20260904210715 76 31 0.0 0.9 0.00 0.06 0.00 69 1013.2
20260904210515 76 31 0.0 0.9 0.00 0.06 0.00 70 1013.3
20260904210315 76 36 0.0 0.9 0.00 0.06 0.00 70 1013.3
20260904210115 76 58 0.0 0.9 0.00 0.06 0.00 70 1013.2
20260904205914 76 68 0.0 0.9 0.00 0.06 0.00 70 1013.2
20260904205714 76 71 0.0 0.9 0.00 0.06 0.00 70 1013.3
20260904205514 76 72 0.0 1.7 0.00 0.06 0.00 70 1013.3
20260904205313 76 71 0.0 1.7 0.00 0.06 0.00 71 1013.3
20260904205113 76 72 0.0 1.7 0.00 0.06 0.00 70 1013.3
20260904204913 76 68 0.0 1.7 0.00 0.06 0.00 71 1013.2
20260904204712 76 48 0.0 1.7 0.00 0.06 0.00 71 1013.2
20260904204512 76 33 0.0 1.7 0.00 0.06 0.00 71 1013.2
20260904204312 76 33 0.0 1.7 0.00 0.06 0.00 72 1013.2
20260904204111 76 33 0.0 1.7 0.00 0.06 0.00 71 1013.2
20260904203911 76 33 0.0 4.3 0.00 0.06 0.00 72 1013.3
20260904203711 76 33 0.0 4.3 0.00 0.06 0.00 72 1013.4
20260904203511 76 33 0.0 4.3 0.00 0.06 0.00 72 1013.4
20260904203310 76 18 0.9 4.3 0.00 0.06 0.00 72 1013.4
20260904203110 76 11 0.9 4.3 0.00 0.06 0.00 71 1013.5
20260904202910 76 70 0.0 0.9 0.00 0.06 0.00 72 1013.6
20260904202709 76 70 0.0 0.9 0.00 0.06 0.00 72 1013.6
20260904202509 75 70 0.0 1.7 0.00 0.06 0.00 72 1013.5
20260904202309 75 70 0.0 1.7 0.00 0.06 0.00 72 1013.5
20260904202108 75 70 0.0 3.5 0.00 0.06 0.00 72 1013.5
20260904201908 75 70 0.0 3.5 0.00 0.06 0.00 73 1013.6
20260904201708 75 71 0.0 3.5 0.00 0.06 0.00 72 1013.7
20260904201507 75 41 0.9 3.5 0.00 0.06 0.00 72 1013.8
20260904201307 75 37 0.9 3.5 0.00 0.06 0.00 72 1013.9
20260904201107 76 114 0.9 3.5 0.00 0.06 0.00 72 1014.0
20260904200906 76 330 0.0 3.5 0.00 0.06 0.00 73 1014.0
20260904200706 76 326 0.0 1.7 0.00 0.06 0.00 72 1014.0
20260904200506 76 324 0.0 3.5 0.00 0.06 0.00 72 1014.1
20260904200306 76 319 0.0 3.5 0.00 0.06 0.00 73 1013.9
20260904200105 76 1 0.0 3.5 0.00 0.06 0.00 73 1014.0
20260904195905 76 66 0.9 3.5 0.00 0.06 0.00 72 1014.1
20260904195705 76 27 0.9 5.2 0.00 0.06 0.00 72 1014.0
20260904195504 76 16 0.9 5.2 0.00 0.06 0.00 72 1014.0
20260904195306 76 28 0.9 5.2 0.00 0.06 0.00 73 1014.0
20260904195104 76 38 1.7 5.2 0.00 0.06 0.00 72 1013.9
20260904194903 76 26 1.7 5.2 0.00 0.06 0.00 72 1013.9
20260904194703 77 25 1.7 4.3 0.00 0.06 0.00 72 1014.0
20260904194503 77 79 0.9 2.6 0.00 0.06 0.00 71 1014.1
20260904194302 77 124 0.0 1.7 0.00 0.06 0.00 71 1014.0
20260904194102 77 146 0.0 1.7 0.00 0.06 0.00 71 1014.0
20260904193902 77 145 0.0 2.6 0.00 0.06 0.00 71 1014.0
20260904193701 77 6 0.0 2.6 0.00 0.06 0.00 70 1014.0
20260904193501 77 349 0.9 2.6 0.00 0.06 0.00 70 1013.9
20260904193301 77 86 0.9 2.6 0.00 0.06 0.00 70 1014.0
20260904193101 78 57 0.9 2.6 0.00 0.06 0.00 70 1014.0
20260904192900 78 62 0.9 2.6 0.00 0.06 0.00 70 1014.0
20260904192700 78 64 0.9 2.6 0.00 0.06 0.00 70 1014.0
20260904192500 78 51 0.9 3.5 0.00 0.06 0.00 70 1014.1
20260904192259 78 49 0.9 3.5 0.00 0.06 0.00 69 1014.1
20260904192059 78 77 0.9 3.5 0.00 0.06 0.00 69 1014.1
20260904191859 78 91 0.9 3.5 0.00 0.06 0.00 69 1014.1
20260904191658 78 119 0.9 3.5 0.00 0.06 0.00 70 1014.1
20260904191458 77 139 0.0 3.5 0.00 0.06 0.00 70 1014.2
20260904191258 77 136 0.9 3.5 0.00 0.06 0.00 70 1014.2
20260904191057 77 79 0.9 3.5 0.00 0.06 0.00 70 1014.3
20260904190857 77 58 1.7 3.5 0.00 0.06 0.00 70 1014.3
20260904190657 78 42 0.9 2.6 0.00 0.06 0.00 68 1014.3
20260904190457 78 40 0.9 1.7 0.00 0.06 0.00 69 1014.3
20260904190256 78 62 0.9 1.7 0.00 0.06 0.00 68 1014.3
20260904190056 77 126 0.0 1.7 0.00 0.06 0.00 70 1014.4
20260904185856 77 104 0.0 2.6 0.00 0.06 0.00 69 1014.4
20260904185655 77 62 0.0 2.6 0.00 0.06 0.00 69 1014.3
20260904185455 77 102 0.9 4.3 0.00 0.06 0.00 69 1014.4
20260904185255 77 172 0.9 4.3 0.00 0.06 0.00 69 1014.4
20260904185054 77 161 0.9 4.3 0.00 0.06 0.00 69 1014.5
20260904184854 78 62 0.9 4.3 0.00 0.06 0.00 69 1014.5
20260904184654 78 91 0.9 5.2 0.00 0.06 0.00 69 1014.5
20260904184453 78 122 0.0 5.2 0.00 0.06 0.00 71 1014.6
20260904184253 77 228 0.9 5.2 0.00 0.06 0.00 71 1014.7
20260904184053 77 255 0.9 5.2 0.00 0.06 0.00 70 1014.7
20260904183852 77 251 1.7 5.2 0.00 0.06 0.00 70 1014.7
20260904183652 77 159 1.7 5.2 0.00 0.06 0.00 69 1014.8
20260904183452 77 241 0.9 4.3 0.00 0.06 0.00 70 1014.9
20260904183251 77 184 0.9 4.3 0.00 0.06 0.00 69 1015.0
20260904183051 77 72 0.9 4.3 0.00 0.06 0.00 69 1015.0
20260904182851 77 110 0.9 4.3 0.00 0.06 0.00 69 1015.0
20260904182651 77 49 0.9 4.3 0.00 0.06 0.00 68 1015.0
20260904182450 77 247 0.9 3.5 0.00 0.06 0.00 69 1015.0
20260904182250 77 186 0.0 3.5 0.00 0.06 0.00 70 1015.1
20260904182050 76 237 0.0 3.5 0.00 0.06 0.00 71 1015.1
20260904181849 76 237 0.9 4.3 0.00 0.06 0.00 70 1015.1
20260904181649 76 240 0.0 4.3 0.00 0.06 0.00 70 1015.2
20260904181449 76 197 0.9 4.3 0.00 0.06 0.00 70 1015.3
20260904181248 76 158 0.9 4.3 0.00 0.06 0.00 70 1015.2
20260904181048 76 257 0.9 4.3 0.00 0.06 0.00 70 1015.2
20260904180848 76 320 0.9 2.6 0.00 0.06 0.00 70 1015.3
20260904180647 76 349 0.0 2.6 0.00 0.06 0.00 70 1015.2
20260904180447 76 126 0.0 3.5 0.00 0.06 0.00 71 1015.3
20260904180247 76 126 0.0 3.5 0.00 0.06 0.00 70 1015.3
20260904180047 77 75 0.9 3.5 0.00 0.06 0.00 70 1015.3
20260904175846 77 42 0.9 3.5 0.00 0.06 0.00 71 1015.4
20260904175646 77 45 0.9 3.5 0.00 0.06 0.00 71 1015.3
20260904175446 77 110 0.0 3.5 0.00 0.06 0.00 71 1015.3
20260904175245 77 184 0.9 3.5 0.00 0.06 0.00 71 1015.3
20260904175045 76 134 0.0 3.5 0.00 0.06 0.00 72 1015.3
20260904174845 76 83 0.9 3.5 0.00 0.06 0.00 72 1015.4
20260904174644 76 104 0.9 3.5 0.00 0.06 0.00 72 1015.4
20260904174444 76 185 0.9 3.5 0.00 0.06 0.00 72 1015.4
20260904174244 76 200 0.0 3.5 0.00 0.06 0.00 72 1015.4
20260904174043 76 110 0.9 3.5 0.00 0.06 0.00 72 1015.3
20260904173843 76 111 0.0 3.5 0.00 0.06 0.00 72 1015.3
20260904173643 76 145 0.9 4.3 0.00 0.06 0.00 72 1015.3
20260904173442 76 189 0.0 5.2 0.00 0.06 0.00 72 1015.4
20260904173242 76 222 0.0 5.2 0.00 0.06 0.00 72 1015.4
20260904173042 76 220 0.9 5.2 0.00 0.06 0.00 72 1015.4
20260904172842 76 217 1.7 5.2 0.00 0.06 0.00 72 1015.4
20260904172641 76 221 0.9 5.2 0.00 0.06 0.00 71 1015.4
20260904172441 76 220 0.0 2.6 0.00 0.06 0.00 71 1015.5
20260904172241 76 220 0.9 3.5 0.00 0.06 0.00 70 1015.5
20260904172040 76 219 0.9 3.5 0.00 0.06 0.00 71 1015.5
20260904171840 76 221 0.9 3.5 0.00 0.06 0.00 71 1015.5
20260904171640 76 223 0.9 3.5 0.00 0.06 0.00 71 1015.5
20260904171439 76 222 0.0 3.5 0.00 0.06 0.00 72 1015.5
20260904171239 76 223 0.9 2.6 0.00 0.06 0.00 72 1015.5
20260904171039 76 234 0.9 3.5 0.00 0.06 0.00 71 1015.5
20260904170838 76 203 0.9 3.5 0.00 0.06 0.00 71 1015.5
20260904170638 76 209 0.9 3.5 0.00 0.06 0.00 71 1015.5
20260904170438 76 200 0.9 3.5 0.00 0.06 0.00 71 1015.5
20260904170237 76 203 0.9 3.5 0.00 0.06 0.00 71 1015.6
20260904170037 76 200 0.9 2.6 0.00 0.06 0.00 70 1015.6
20260904165837 77 155 0.0 2.6 0.00 0.06 0.00 70 1015.6
20260904165637 76 128 0.0 2.6 0.00 0.06 0.00 69 1015.6
20260904165436 76 129 0.0 2.6 0.00 0.06 0.00 69 1015.6
20260904165236 76 130 0.0 2.6 0.00 0.06 0.00 70 1015.7
20260904165036 76 182 0.9 2.6 0.00 0.06 0.00 70 1015.7
20260904164835 76 219 0.0 3.5 0.00 0.06 0.00 70 1015.7
20260904164635 76 219 0.0 3.5 0.00 0.06 0.00 70 1015.8
20260904164435 76 219 0.9 3.5 0.00 0.06 0.00 70 1015.8
20260904164234 76 204 0.9 3.5 0.00 0.06 0.00 70 1015.8
20260904164034 77 201 0.9 3.5 0.00 0.06 0.00 69 1015.8
20260904163834 77 236 0.0 1.7 0.00 0.06 0.00 70 1015.8
20260904163633 77 237 0.0 3.5 0.00 0.06 0.00 70 1015.8
20260904163433 77 237 0.0 3.5 0.00 0.06 0.00 70 1015.8
20260904163233 77 236 0.0 3.5 0.00 0.06 0.00 69 1015.9
20260904163033 77 199 0.9 5.2 0.00 0.06 0.00 70 1015.9
20260904162832 77 256 0.9 6.1 0.00 0.06 0.00 70 1015.9
20260904162632 77 271 0.9 6.1 0.00 0.06 0.00 70 1015.8
20260904162432 77 194 2.6 6.1 0.00 0.06 0.00 70 1015.8
20260904162231 77 212 2.6 6.1 0.00 0.06 0.00 70 1015.8
20260904162031 77 233 1.7 5.2 0.00 0.06 0.00 70 1015.9
20260904161831 77 209 0.9 3.5 0.00 0.06 0.00 69 1015.9
20260904161630 77 64 0.9 3.5 0.00 0.06 0.00 69 1016.0
20260904161430 77 196 1.7 3.5 0.00 0.06 0.00 68 1016.0
20260904161230 77 192 0.9 3.5 0.00 0.06 0.00 67 1016.0
20260904161029 77 206 0.9 4.3 0.00 0.06 0.00 66 1016.1
20260904160829 77 170 0.0 4.3 0.00 0.06 0.00 67 1016.1
20260904160629 77 163 0.0 4.3 0.00 0.06 0.00 67 1016.1
20260904160428 77 163 0.9 4.3 0.00 0.06 0.00 67 1016.2
20260904160228 78 230 0.9 4.3 0.00 0.06 0.00 66 1016.2
20260904160028 78 285 0.0 3.5 0.00 0.06 0.00 66 1016.1
20260904155828 78 266 0.9 3.5 0.00 0.06 0.00 66 1016.2
20260904155627 78 159 0.9 3.5 0.00 0.06 0.00 66 1016.1
20260904155427 78 157 0.0 2.6 0.00 0.06 0.00 66 1016.1
20260904155227 78 240 0.0 2.6 0.00 0.06 0.00 66 1016.1
20260904155026 78 245 0.0 2.6 0.00 0.06 0.00 66 1016.1
20260904154826 78 273 0.9 3.5 0.00 0.06 0.00 67 1016.1
20260904154626 77 240 0.9 3.5 0.00 0.06 0.00 67 1016.1
20260904154425 77 234 0.9 4.3 0.00 0.06 0.00 67 1016.2
20260904154225 77 225 1.7 4.3 0.00 0.06 0.00 66 1016.2
20260904154025 78 196 0.9 4.3 0.00 0.06 0.00 65 1016.3
20260904153824 78 194 0.9 4.3 0.00 0.06 0.00 66 1016.3
20260904153624 78 194 0.0 4.3 0.00 0.06 0.00 65 1016.3
20260904153424 78 124 0.0 4.3 0.00 0.06 0.00 63 1016.3
20260904153224 78 122 0.0 4.3 0.00 0.06 0.00 64 1016.3
20260904153023 78 87 0.9 4.3 0.00 0.06 0.00 63 1016.2
20260904152823 79 68 0.9 4.3 0.00 0.06 0.00 63 1016.2
20260904152623 79 69 0.0 2.6 0.00 0.06 0.00 63 1016.2
20260904152422 79 66 0.0 1.7 0.00 0.06 0.00 64 1016.2
20260904152222 78 66 0.0 1.7 0.00 0.06 0.00 64 1016.1
20260904152022 78 66 0.0 1.7 0.00 0.06 0.00 64 1016.1
20260904151821 78 66 0.0 1.7 0.00 0.06 0.00 64 1016.1
20260904151621 77 66 0.0 1.7 0.00 0.06 0.00 65 1016.0
20260904151421 77 66 0.9 1.7 0.00 0.06 0.00 64 1016.0
20260904151220 78 66 0.9 1.7 0.00 0.06 0.00 65 1016.0
20260904151020 77 71 0.0 1.7 0.00 0.06 0.00 65 1016.0
20260904150820 77 71 0.0 1.7 0.00 0.06 0.00 66 1016.0
20260904150619 77 65 0.9 1.7 0.00 0.06 0.00 66 1015.8
20260904150419 76 51 0.0 1.7 0.00 0.06 0.00 66 1015.8
20260904150219 76 44 0.0 1.7 0.00 0.06 0.00 67 1015.8
20260904150019 76 44 0.0 1.7 0.00 0.06 0.00 66 1015.8
20260904145818 76 44 0.0 1.7 0.00 0.06 0.00 65 1015.8
20260904145618 76 44 0.0 1.7 0.00 0.06 0.00 67 1015.8
20260904145418 76 44 0.0 1.7 0.00 0.06 0.00 67 1015.7
20260904145217 76 44 0.9 1.7 0.00 0.06 0.00 67 1015.7
20260904145017 76 43 0.9 1.7 0.00 0.06 0.00 67 1015.8
20260904144817 76 5 0.0 1.7 0.00 0.06 0.00 68 1015.8
20260904144616 76 355 0.0 1.7 0.00 0.06 0.00 69 1015.7
20260904144416 76 355 0.0 1.7 0.00 0.06 0.00 68 1015.8
20260904144216 75 355 0.0 1.7 0.00 0.06 0.00 68 1015.7
20260904144015 75 354 0.0 1.7 0.00 0.06 0.00 68 1015.7
20260904143815 75 353 0.0 0.9 0.00 0.06 0.00 68 1015.7
20260904143615 75 353 0.0 0.9 0.00 0.06 0.00 70 1015.7
20260904143414 75 0 0.0 0.9 0.00 0.06 0.00 71 1015.6
20260904143214 75 353 0.0 0.9 0.00 0.06 0.00 71 1015.5
20260904143014 74 25 0.0 0.9 0.00 0.06 0.00 72 1015.5
20260904142814 74 34 0.0 3.5 0.00 0.06 0.00 72 1015.5
20260904142613 74 34 0.0 4.3 0.00 0.06 0.00 71 1015.5
20260904142413 74 34 0.0 4.3 0.00 0.06 0.00 71 1015.5
20260904142213 74 34 0.9 4.3 0.00 0.06 0.00 71 1015.5
20260904142012 74 43 1.7 4.3 0.00 0.06 0.00 71 1015.4
20260904141812 74 25 0.0 1.7 0.00 0.06 0.00 72 1015.5
20260904141612 73 25 0.0 1.7 0.00 0.06 0.00 72 1015.4
20260904141411 73 25 0.0 1.7 0.00 0.06 0.00 72 1015.4
20260904141211 73 25 0.0 1.7 0.00 0.06 0.00 73 1015.4
20260904141011 73 24 0.0 1.7 0.00 0.06 0.00 73 1015.4
20260904140810 74 22 0.0 1.7 0.00 0.06 0.00 73 1015.4
20260904140610 73 0 0.0 0.9 0.00 0.06 0.00 72 1015.4
20260904140410 73 0 0.0 0.9 0.00 0.06 0.00 73 1015.5
20260904140209 73 82 0.0 0.9 0.00 0.06 0.00 73 1015.4
20260904140009 73 82 0.0 0.9 0.00 0.06 0.00 72 1015.4
20260904135809 73 82 0.0 0.9 0.00 0.06 0.00 73 1015.5
20260904135608 73 82 0.0 0.9 0.00 0.06 0.00 73 1015.4
20260904135408 73 83 0.0 0.9 0.00 0.06 0.00 73 1015.4
20260904135208 72 83 0.0 0.9 0.00 0.06 0.00 74 1015.4
20260904135008 72 79 0.0 0.9 0.00 0.06 0.00 73 1015.4
20260904134807 72 0 0.0 1.7 0.00 0.06 0.00 72 1015.5
20260904134607 72 46 0.0 1.7 0.00 0.06 0.00 72 1015.5
20260904134407 72 47 0.0 1.7 0.00 0.06 0.00 73 1015.4
20260904134206 72 48 0.9 1.7 0.00 0.06 0.00 72 1015.4
20260904134006 72 48 0.9 1.7 0.00 0.06 0.00 73 1015.3
20260904133806 72 43 0.0 1.7 0.00 0.06 0.00 75 1015.3
20260904133605 72 0 0.0 0.9 0.00 0.06 0.00 76 1015.3
20260904133405 72 0 0.0 0.9 0.00 0.06 0.00 76 1015.3
20260904133205 72 43 0.0 0.9 0.00 0.06 0.00 75 1015.4
20260904133004 72 43 0.0 0.9 0.00 0.06 0.00 75 1015.5
20260904132804 72 43 0.0 0.9 0.00 0.06 0.00 75 1015.5
20260904132604 72 0 0.0 0.9 0.00 0.06 0.00 75 1015.5
20260904132404 72 0 0.0 0.9 0.00 0.06 0.00 75 1015.5
20260904132203 72 0 0.0 0.9 0.00 0.06 0.00 75 1015.5
20260904132003 72 43 0.0 0.9 0.00 0.06 0.00 76 1015.5
20260904131803 72 43 0.0 0.9 0.00 0.06 0.00 76 1015.6
20260904131602 72 0 0.0 0.9 0.00 0.06 0.00 76 1015.8
20260904131402 72 0 0.0 0.9 0.00 0.06 0.00 76 1015.7
20260904131202 72 0 0.0 0.9 0.00 0.06 0.00 76 1015.8
20260904131001 72 43 0.0 0.9 0.00 0.06 0.00 76 1015.9
20260904130801 72 43 0.0 0.9 0.00 0.06 0.00 74 1015.9
20260904130601 72 43 0.0 0.9 0.00 0.06 0.00 75 1015.8
20260904130400 72 0 0.0 0.9 0.00 0.06 0.00 76 1015.8
20260904130200 72 0 0.0 0.0 0.00 0.06 0.00 76 1016.0
20260904130000 72 0 0.0 0.0 0.00 0.06 0.00 77 1016.0
20260904125759 71 0 0.0 0.0 0.00 0.06 0.00 79 1015.8
20260904125559 71 0 0.0 0.0 0.00 0.06 0.00 78 1015.8
20260904125359 71 0 0.0 0.0 0.00 0.06 0.00 79 1015.8
20260904125159 70 0 0.0 0.0 0.00 0.06 0.00 80 1015.8
20260904124958 70 0 0.0 0.0 0.00 0.06 0.00 80 1015.7
20260904124758 70 0 0.0 0.0 0.00 0.06 0.00 81 1015.8
20260904124558 70 0 0.0 0.9 0.00 0.06 0.00 82 1015.9
20260904124357 69 0 0.0 0.9 0.00 0.06 0.00 81 1015.8
20260904124157 69 0 0.0 0.9 0.00 0.06 0.00 81 1015.8
20260904123957 69 43 0.0 0.9 0.00 0.06 0.00 81 1015.8
20260904123756 69 43 0.0 0.9 0.00 0.06 0.00 81 1015.8
20260904123556 69 0 0.0 0.0 0.00 0.06 0.00 81 1015.8
20260904123356 69 0 0.0 0.0 0.00 0.06 0.00 81 1015.7
20260904123155 69 0 0.0 0.0 0.00 0.06 0.00 82 1015.7
20260904122955 68 0 0.0 0.0 0.00 0.06 0.00 83 1015.7
20260904122755 68 0 0.0 0.0 0.00 0.06 0.00 83 1015.7
20260904122554 68 0 0.0 0.0 0.00 0.06 0.00 83 1015.6
20260904122354 68 0 0.0 0.0 0.00 0.06 0.00 83 1015.7
20260904122154 68 0 0.0 0.0 0.00 0.06 0.00 83 1015.5
20260904121954 68 0 0.0 0.0 0.00 0.06 0.00 85 1015.5
20260904121753 67 0 0.0 0.0 0.00 0.06 0.00 85 1015.6
20260904121553 67 0 0.0 0.0 0.00 0.06 0.00 85 1015.7
20260904121353 67 0 0.0 0.0 0.00 0.06 0.00 86 1015.7
20260904121152 67 0 0.0 0.0 0.00 0.06 0.00 87 1015.5
20260904120952 67 0 0.0 0.0 0.00 0.06 0.00 88 1015.5
20260904120752 66 0 0.0 0.0 0.00 0.06 0.00 88 1015.5
20260904120552 66 0 0.0 0.0 0.00 0.06 0.00 89 1015.4
20260904120351 66 0 0.0 0.0 0.00 0.06 0.00 89 1015.4
20260904120151 66 0 0.0 0.0 0.00 0.06 0.00 90 1015.5
20260904115950 66 0 0.0 0.0 0.00 0.06 0.00 90 1015.5
20260904115750 66 0 0.0 0.0 0.00 0.06 0.00 91 1015.7
20260904115550 65 0 0.0 0.0 0.00 0.06 0.00 91 1015.6
20260904115350 65 0 0.0 0.0 0.00 0.06 0.00 91 1015.5
20260904115149 65 0 0.0 0.0 0.00 0.06 0.00 92 1015.6
20260904114949 65 0 0.0 0.0 0.00 0.06 0.00 92 1015.4
20260904114749 65 0 0.0 0.0 0.00 0.06 0.00 92 1015.3
20260904114548 65 0 0.0 0.0 0.00 0.06 0.00 92 1015.3
20260904114348 65 0 0.0 0.0 0.00 0.06 0.00 93 1015.4
20260904114148 64 0 0.0 0.0 0.00 0.06 0.00 93 1015.3
20260904113947 64 0 0.0 0.0 0.00 0.06 0.00 93 1015.3
20260904113747 64 0 0.0 0.0 0.00 0.06 0.00 93 1015.3
20260904113547 64 0 0.0 0.0 0.00 0.06 0.00 93 1015.3
20260904113346 64 0 0.0 0.0 0.00 0.06 0.00 93 1015.3
20260904113146 64 0 0.0 0.0 0.00 0.06 0.00 93 1015.2
20260904112946 64 0 0.0 0.0 0.00 0.06 0.00 93 1015.0
20260904112745 64 0 0.0 0.0 0.00 0.06 0.00 93 1015.1
20260904112545 64 0 0.0 0.0 0.00 0.06 0.00 93 1015.2
20260904112345 64 0 0.0 0.0 0.00 0.06 0.00 93 1015.2
20260904112145 64 0 0.0 0.0 0.00 0.06 0.00 93 1015.1
20260904111944 64 0 0.0 0.0 0.00 0.06 0.00 93 1015.0
20260904111744 64 0 0.0 0.0 0.00 0.06 0.00 93 1015.0
20260904111544 64 0 0.0 0.0 0.00 0.06 0.00 93 1015.0
20260904111343 64 0 0.0 0.0 0.00 0.06 0.00 93 1015.0
20260904111143 64 0 0.0 0.0 0.00 0.06 0.00 93 1014.9
20260904110943 64 0 0.0 0.0 0.00 0.06 0.00 93 1014.9
20260904110742 64 0 0.0 0.0 0.00 0.06 0.00 93 1014.9
20260904110542 64 0 0.0 0.0 0.00 0.06 0.00 93 1014.9
20260904110342 64 0 0.0 0.0 0.00 0.06 0.00 93 1014.9
20260904110141 64 0 0.0 0.0 0.00 0.06 0.00 92 1015.0
20260904105941 64 0 0.0 0.0 0.00 0.06 0.00 93 1014.9
20260904105741 64 0 0.0 0.0 0.00 0.06 0.00 93 1014.9
20260904105541 64 0 0.0 0.0 0.00 0.06 0.00 93 1014.9
20260904105340 64 0 0.0 0.0 0.00 0.06 0.00 93 1014.9
20260904105140 64 0 0.0 0.0 0.00 0.06 0.00 93 1014.9
20260904104940 64 0 0.0 0.0 0.00 0.06 0.00 93 1014.9
20260904104739 64 0 0.0 0.0 0.00 0.06 0.00 92 1014.8
20260904104539 64 0 0.0 0.0 0.00 0.06 0.00 92 1014.8
20260904104339 64 0 0.0 0.0 0.00 0.06 0.00 92 1014.8
20260904104138 65 0 0.0 0.0 0.00 0.06 0.00 92 1014.8
20260904103938 65 0 0.0 0.0 0.00 0.06 0.00 92 1014.9
20260904103738 65 0 0.0 0.0 0.00 0.06 0.00 92 1014.9
20260904103537 65 0 0.0 0.0 0.00 0.06 0.00 92 1014.8
20260904103337 65 0 0.0 0.0 0.00 0.06 0.00 92 1014.8
20260904103137 65 0 0.0 0.0 0.00 0.06 0.00 92 1014.8
20260904102936 65 0 0.0 0.0 0.00 0.06 0.00 92 1014.9
20260904102736 65 0 0.0 0.0 0.00 0.06 0.00 92 1015.0
20260904102536 65 0 0.0 0.0 0.00 0.06 0.00 92 1014.9
20260904102335 65 0 0.0 0.0 0.00 0.06 0.00 92 1014.8
20260904102135 65 0 0.0 0.0 0.00 0.06 0.00 92 1014.8
20260904101935 65 0 0.0 0.0 0.00 0.06 0.00 92 1014.8
20260904101735 65 0 0.0 0.0 0.00 0.06 0.00 92 1014.8
20260904101534 65 0 0.0 0.0 0.00 0.06 0.00 92 1014.9
20260904101334 65 0 0.0 0.0 0.00 0.06 0.00 92 1014.8
20260904101134 65 0 0.0 0.0 0.00 0.06 0.00 92 1014.9
20260904100933 65 0 0.0 0.0 0.00 0.06 0.00 92 1014.9
20260904100733 65 0 0.0 0.0 0.00 0.06 0.00 92 1014.9
20260904100533 65 0 0.0 0.0 0.00 0.06 0.00 92 1014.9
20260904100332 65 0 0.0 0.0 0.00 0.06 0.00 91 1015.0
20260904100132 65 0 0.0 0.0 0.00 0.06 0.00 91 1014.9
20260904095932 65 0 0.0 0.0 0.00 0.06 0.00 91 1015.0
20260904095731 65 0 0.0 0.0 0.00 0.06 0.00 91 1015.1
20260904095531 66 0 0.0 0.0 0.00 0.06 0.00 91 1015.0
20260904095331 66 0 0.0 0.0 0.00 0.06 0.00 91 1015.0
20260904095131 66 0 0.0 0.0 0.00 0.06 0.00 91 1015.0
20260904094930 66 0 0.0 0.0 0.00 0.06 0.00 91 1015.0
20260904094730 66 0 0.0 0.0 0.00 0.06 0.00 91 1014.9
20260904094530 66 0 0.0 0.0 0.00 0.06 0.00 91 1014.9
20260904094329 66 0 0.0 0.0 0.00 0.06 0.00 91 1014.9
20260904094129 66 0 0.0 0.0 0.00 0.06 0.00 91 1014.9
20260904093929 66 0 0.0 0.0 0.00 0.06 0.00 91 1014.9
20260904093728 66 0 0.0 0.0 0.00 0.06 0.00 91 1014.9
20260904093528 66 0 0.0 0.0 0.00 0.06 0.00 91 1014.9
20260904093328 66 0 0.0 0.0 0.00 0.06 0.00 91 1014.9
20260904093127 66 0 0.0 0.0 0.00 0.06 0.00 92 1015.0
20260904092927 66 0 0.0 0.0 0.00 0.06 0.00 92 1015.0
20260904092727 66 0 0.0 0.0 0.00 0.06 0.00 92 1014.9
20260904092526 66 0 0.0 0.0 0.00 0.06 0.00 92 1015.0
20260904092326 66 0 0.0 0.0 0.00 0.06 0.00 92 1014.9
20260904092126 66 0 0.0 0.0 0.00 0.06 0.00 93 1015.0
20260904091926 66 0 0.0 0.0 0.00 0.06 0.00 93 1015.0
20260904091725 66 0 0.0 0.0 0.00 0.06 0.00 93 1015.0
20260904091525 66 0 0.0 0.0 0.00 0.06 0.00 93 1014.9
20260904091325 66 0 0.0 0.0 0.00 0.06 0.00 93 1014.9
20260904091124 66 0 0.0 0.0 0.00 0.06 0.00 93 1014.9
20260904090924 66 0 0.0 0.0 0.00 0.06 0.00 93 1014.8
20260904090724 66 0 0.0 0.0 0.00 0.06 0.00 93 1014.8
20260904090523 66 0 0.0 0.0 0.00 0.06 0.00 93 1014.8
20260904090323 66 0 0.0 0.0 0.00 0.06 0.00 93 1014.8
20260904090123 66 0 0.0 0.0 0.00 0.06 0.00 93 1014.8
20260904085922 66 0 0.0 0.0 0.00 0.06 0.00 93 1014.8
20260904085722 66 0 0.0 0.0 0.00 0.06 0.00 93 1014.8
20260904085522 66 0 0.0 0.0 0.00 0.06 0.00 93 1014.8
20260904085321 66 0 0.0 0.0 0.00 0.06 0.00 93 1014.8
20260904085121 66 0 0.0 0.0 0.00 0.06 0.00 93 1014.8
20260904084921 66 0 0.0 0.0 0.00 0.06 0.00 92 1014.8
20260904084721 66 0 0.0 0.0 0.00 0.06 0.00 92 1014.7
20260904084520 66 0 0.0 0.0 0.00 0.06 0.00 92 1014.6
20260904084320 66 0 0.0 0.0 0.00 0.06 0.00 93 1014.6
20260904084120 66 0 0.0 0.0 0.00 0.06 0.00 92 1014.6
20260904083919 66 0 0.0 0.0 0.00 0.06 0.00 92 1014.6
20260904083719 66 0 0.0 0.0 0.00 0.06 0.00 93 1014.6
20260904083519 66 0 0.0 0.0 0.00 0.06 0.00 93 1014.6
20260904083318 66 0 0.0 0.0 0.00 0.06 0.00 93 1014.7
20260904083118 66 0 0.0 0.0 0.00 0.06 0.00 93 1014.8
20260904082918 66 0 0.0 0.0 0.00 0.06 0.00 93 1014.7
20260904082717 66 0 0.0 0.0 0.00 0.06 0.00 93 1014.6
20260904082517 66 0 0.0 0.0 0.00 0.06 0.00 93 1014.6
20260904082317 66 0 0.0 0.0 0.00 0.06 0.00 93 1014.6
20260904082117 66 0 0.0 0.0 0.00 0.06 0.00 93 1014.6
20260904081916 66 0 0.0 0.0 0.00 0.06 0.00 94 1014.8
20260904081716 66 0 0.0 0.0 0.00 0.06 0.00 94 1014.8
20260904081516 66 0 0.0 0.9 0.00 0.06 0.00 94 1014.8
20260904081315 66 0 0.0 0.9 0.00 0.06 0.00 94 1014.7
20260904081115 66 0 0.0 0.9 0.00 0.06 0.00 95 1014.7
20260904080915 66 0 0.0 0.9 0.00 0.06 0.00 95 1014.8
20260904080714 66 43 0.0 0.9 0.00 0.06 0.00 95 1014.8
20260904080514 66 43 0.0 0.9 0.00 0.06 0.00 96 1014.9
20260904080314 66 0 0.0 0.0 0.00 0.06 0.00 96 1014.9
20260904080113 66 0 0.0 0.0 0.00 0.06 0.00 96 1014.9
20260904075913 66 0 0.0 0.0 0.00 0.06 0.00 96 1014.9
20260904075713 66 0 0.0 0.0 0.00 0.06 0.00 96 1014.9
20260904075512 66 0 0.0 0.0 0.00 0.06 0.00 96 1014.9
20260904075312 66 0 0.0 0.0 0.00 0.06 0.00 96 1014.9
20260904075112 66 0 0.0 0.0 0.00 0.06 0.00 96 1014.9
20260904074911 66 0 0.0 0.0 0.00 0.06 0.00 96 1014.9
20260904074711 66 0 0.0 0.0 0.00 0.06 0.00 96 1014.9
20260904074511 66 0 0.0 0.0 0.00 0.06 0.00 96 1014.9
20260904074310 66 0 0.0 0.0 0.00 0.06 0.00 96 1015.0
20260904074110 66 0 0.0 0.0 0.00 0.06 0.00 96 1014.9
20260904073910 66 0 0.0 0.0 0.00 0.06 0.00 96 1015.0
20260904073710 66 0 0.0 0.0 0.00 0.06 0.00 97 1014.9
20260904073509 66 0 0.0 0.0 0.00 0.06 0.00 97 1014.9
20260904073309 66 0 0.0 0.0 0.00 0.06 0.00 97 1014.9
20260904073109 66 0 0.0 0.0 0.00 0.06 0.00 97 1015.0
20260904072908 66 0 0.0 0.0 0.00 0.06 0.00 97 1014.9
20260904072708 66 0 0.0 0.0 0.00 0.06 0.00 97 1014.8
20260904072508 66 0 0.0 0.0 0.00 0.06 0.00 97 1014.7
20260904072307 66 0 0.0 0.0 0.00 0.06 0.00 97 1014.8
20260904072107 66 0 0.0 0.0 0.00 0.06 0.00 97 1014.8
20260904071907 66 0 0.0 0.0 0.00 0.06 0.00 97 1014.8
20260904071706 66 0 0.0 0.0 0.00 0.06 0.00 97 1014.7
20260904071506 66 0 0.0 0.0 0.00 0.06 0.00 97 1014.7
20260904071306 66 0 0.0 0.0 0.00 0.06 0.00 97 1014.8
20260904071106 66 0 0.0 0.0 0.00 0.06 0.00 97 1014.8
20260904070905 66 0 0.0 0.0 0.00 0.06 0.00 97 1014.8
20260904070705 66 0 0.0 0.0 0.00 0.06 0.00 96 1014.8
20260904070505 66 0 0.0 0.0 0.00 0.06 0.00 96 1014.7
20260904070304 66 0 0.0 0.0 0.00 0.06 0.00 96 1014.7
20260904070104 66 0 0.0 0.0 0.00 0.06 0.00 96 1014.7
20260904065904 66 0 0.0 0.0 0.00 0.06 0.00 96 1014.7
20260904065703 66 0 0.0 0.0 0.00 0.06 0.00 96 1014.6
20260904065503 66 0 0.0 0.0 0.00 0.06 0.00 96 1014.6
20260904065306 66 0 0.0 0.0 0.00 0.06 0.00 96 1014.5
20260904065102 66 0 0.0 0.0 0.00 0.06 0.00 96 1014.4
20260904064902 66 0 0.0 0.0 0.00 0.06 0.00 95 1014.4
20260904064702 66 0 0.0 0.0 0.00 0.06 0.00 95 1014.3
20260904064501 66 0 0.0 0.0 0.00 0.06 0.00 95 1014.3
20260904064301 66 0 0.0 0.0 0.00 0.06 0.00 95 1014.3
20260904064101 66 0 0.0 0.0 0.00 0.06 0.00 95 1014.3
20260904063901 66 0 0.0 0.0 0.00 0.06 0.00 95 1014.3
20260904063700 66 0 0.0 0.0 0.00 0.06 0.00 94 1014.3
20260904063500 66 0 0.0 0.0 0.00 0.06 0.00 94 1014.5
20260904063300 66 0 0.0 0.0 0.00 0.06 0.00 94 1014.4
20260904063100 66 0 0.0 0.0 0.00 0.06 0.00 94 1014.4
20260904062859 66 0 0.0 0.0 0.00 0.06 0.00 94 1014.4
20260904062659 67 0 0.0 0.0 0.00 0.06 0.00 94 1014.5
20260904062458 67 0 0.0 0.0 0.00 0.06 0.00 94 1014.6
20260904062258 67 0 0.0 0.0 0.00 0.06 0.00 94 1014.6
20260904062058 67 0 0.0 0.0 0.00 0.06 0.00 94 1014.7
20260904061857 67 0 0.0 0.0 0.00 0.06 0.00 94 1014.7
20260904061657 67 0 0.0 0.0 0.00 0.06 0.00 93 1014.6
20260904061457 67 0 0.0 0.0 0.00 0.06 0.00 93 1014.5
20260904061256 67 0 0.0 0.0 0.00 0.06 0.00 93 1014.6
20260904061056 67 0 0.0 0.0 0.00 0.06 0.00 93 1014.6
20260904060856 68 0 0.0 0.0 0.00 0.06 0.00 93 1014.7
20260904060655 68 0 0.0 0.0 0.00 0.06 0.00 92 1014.6
20260904060455 68 0 0.0 0.0 0.00 0.06 0.00 92 1014.7
20260904060255 68 0 0.0 0.0 0.00 0.06 0.00 92 1014.7
20260904060055 68 0 0.0 0.0 0.00 0.06 0.00 92 1014.8
20260904055854 68 0 0.0 0.0 0.00 0.06 0.00 91 1014.8
20260904055654 68 0 0.0 0.0 0.00 0.06 0.00 91 1014.9
20260904055454 68 0 0.0 0.0 0.00 0.06 0.00 91 1014.9
20260904055253 68 0 0.0 0.0 0.00 0.06 0.00 91 1014.8
20260904055053 68 0 0.0 0.0 0.00 0.06 0.00 90 1014.7
20260904054853 68 0 0.0 0.0 0.00 0.06 0.00 90 1014.7
20260904054652 68 0 0.0 0.0 0.00 0.06 0.00 91 1014.7
20260904054452 68 0 0.0 0.0 0.00 0.06 0.00 91 1014.7
20260904054252 69 0 0.0 0.0 0.00 0.06 0.00 91 1014.7
20260904054051 69 0 0.0 0.0 0.00 0.06 0.00 91 1014.7
20260904053851 69 0 0.0 0.0 0.00 0.06 0.00 91 1014.7
20260904053651 69 0 0.0 0.0 0.00 0.06 0.00 91 1014.8
20260904053450 69 0 0.0 0.0 0.00 0.06 0.00 91 1014.7
20260904053250 69 0 0.0 0.0 0.00 0.06 0.00 92 1014.8
20260904053050 69 0 0.0 0.0 0.00 0.06 0.00 92 1014.9
20260904052850 69 0 0.0 0.0 0.00 0.06 0.00 92 1014.9
20260904052649 69 0 0.0 0.0 0.00 0.06 0.00 92 1014.9
20260904052449 69 0 0.0 0.0 0.00 0.06 0.00 92 1014.9
20260904052249 69 0 0.0 0.0 0.00 0.06 0.00 92 1014.9
20260904052048 69 0 0.0 0.0 0.00 0.06 0.00 92 1014.9
20260904051848 69 0 0.0 0.0 0.00 0.06 0.00 92 1014.9
20260904051648 69 0 0.0 0.0 0.00 0.06 0.00 92 1014.9
20260904051447 69 0 0.0 0.0 0.00 0.06 0.00 92 1014.8
20260904051247 69 0 0.0 0.0 0.00 0.06 0.00 92 1014.8
20260904051047 69 0 0.0 0.0 0.00 0.06 0.00 91 1014.8
20260904050846 69 0 0.0 0.0 0.00 0.06 0.00 91 1014.8
20260904050646 69 0 0.0 0.0 0.00 0.06 0.00 91 1014.9
20260904050446 69 0 0.0 0.0 0.00 0.06 0.00 91 1014.8
20260904050245 69 0 0.0 0.0 0.00 0.06 0.00 90 1014.9
20260904050045 69 0 0.0 0.0 0.00 0.06 0.00 90 1014.8
20260904045845 70 0 0.0 0.0 0.00 0.06 0.00 90 1014.8
20260904045645 70 0 0.0 0.0 0.00 0.06 0.00 90 1014.8
20260904045444 70 0 0.0 0.0 0.00 0.06 0.00 90 1014.8
20260904045244 70 0 0.0 0.9 0.00 0.06 0.00 91 1014.8
20260904045044 70 0 0.0 0.9 0.00 0.06 0.00 91 1014.8
20260904044843 70 0 0.0 0.9 0.00 0.06 0.00 91 1014.8
20260904044643 70 43 0.0 0.9 0.00 0.06 0.00 92 1014.8
20260904044443 70 0 0.0 0.9 0.00 0.06 0.00 92 1014.9
20260904044242 70 0 0.0 0.0 0.00 0.06 0.00 92 1014.9
20260904044042 70 0 0.0 0.0 0.00 0.06 0.00 92 1014.9
20260904043842 70 0 0.0 0.0 0.00 0.06 0.00 92 1014.8
20260904043641 70 0 0.0 0.0 0.00 0.06 0.00 92 1014.7
20260904043441 70 0 0.0 0.0 0.00 0.06 0.00 92 1014.6
20260904043241 70 0 0.0 0.0 0.00 0.06 0.00 92 1014.6
20260904043040 70 0 0.0 0.0 0.00 0.06 0.00 93 1014.8
20260904042840 70 0 0.0 0.0 0.00 0.06 0.00 93 1014.8
20260904042640 70 0 0.0 0.0 0.00 0.06 0.00 93 1014.9
20260904042440 70 0 0.0 0.0 0.00 0.06 0.00 94 1014.8
20260904042239 70 0 0.0 0.0 0.00 0.06 0.00 94 1014.8
20260904042039 70 0 0.0 0.0 0.00 0.06 0.00 94 1014.9
20260904041839 70 0 0.0 0.0 0.00 0.06 0.00 95 1014.9
20260904041638 70 0 0.0 0.0 0.00 0.06 0.00 94 1014.9
20260904041438 70 0 0.0 0.0 0.00 0.06 0.00 94 1015.0
20260904041238 70 0 0.0 0.0 0.00 0.06 0.00 94 1014.9
20260904041037 70 0 0.0 0.0 0.00 0.06 0.00 94 1015.0
20260904040837 70 0 0.0 0.0 0.00 0.06 0.00 94 1015.0
20260904040637 70 0 0.0 0.0 0.00 0.06 0.00 94 1015.0
20260904040436 70 0 0.0 0.0 0.00 0.06 0.00 94 1015.0
20260904040236 70 0 0.0 0.0 0.00 0.06 0.00 94 1014.9
20260904040036 70 0 0.0 0.0 0.00 0.06 0.00 94 1014.9
20260904035836 70 0 0.0 0.0 0.00 0.06 0.06 94 1014.8
20260904035635 70 0 0.0 0.0 0.00 0.06 0.06 94 1014.8
20260904035435 70 0 0.0 0.0 0.00 0.06 0.06 95 1014.7
20260904035235 70 0 0.0 0.0 0.00 0.06 0.06 95 1014.7
20260904035034 70 0 0.0 0.0 0.00 0.06 0.06 95 1014.7
20260904034834 70 0 0.0 0.0 0.00 0.06 0.06 95 1014.7
20260904034634 70 0 0.0 0.0 0.00 0.06 0.06 94 1014.7
20260904034433 69 0 0.0 0.0 0.00 0.06 0.06 94 1014.7
20260904034233 70 0 0.0 0.0 0.00 0.06 0.06 94 1014.7
20260904034033 69 0 0.0 0.0 0.00 0.06 0.06 94 1014.7
20260904033832 70 0 0.0 0.0 0.00 0.06 0.06 94 1014.6
20260904033632 70 0 0.0 0.0 0.00 0.06 0.06 94 1014.6
20260904033432 70 0 0.0 0.0 0.00 0.06 0.06 94 1014.5
20260904033231 70 0 0.0 0.0 0.00 0.06 0.06 94 1014.6
20260904033031 70 0 0.0 0.0 0.00 0.06 0.06 94 1014.5
20260904032831 70 0 0.0 0.0 0.00 0.06 0.06 94 1014.6
20260904032631 70 0 0.0 0.0 0.00 0.06 0.06 94 1014.5
20260904032430 70 0 0.0 0.0 0.00 0.06 0.06 94 1014.5
20260904032230 70 0 0.0 0.0 0.00 0.06 0.06 94 1014.5
20260904032030 70 0 0.0 0.0 0.00 0.06 0.06 94 1014.5
20260904031829 70 0 0.0 0.0 0.00 0.06 0.06 94 1014.5
20260904031629 70 0 0.0 0.0 0.00 0.06 0.06 94 1014.5
20260904031429 70 0 0.0 0.0 0.00 0.06 0.06 94 1014.4
20260904031228 70 0 0.0 0.0 0.00 0.06 0.06 94 1014.4
20260904031028 70 0 0.0 0.0 0.00 0.06 0.06 94 1014.4
20260904030828 70 0 0.0 0.0 0.00 0.06 0.06 94 1014.4
20260904030627 70 0 0.0 0.0 0.00 0.06 0.06 94 1014.3
20260904030427 70 0 0.0 0.0 0.00 0.06 0.06 94 1014.3
20260904030227 70 0 0.0 0.0 0.00 0.06 0.06 93 1014.3
20260904030026 70 0 0.0 0.0 0.00 0.06 0.06 93 1014.4
20260904025826 70 0 0.0 0.0 0.00 0.06 0.06 93 1014.3
20260904025626 70 0 0.0 0.0 0.00 0.06 0.06 93 1014.3
20260904025426 70 0 0.0 0.0 0.00 0.06 0.06 93 1014.3
20260904025225 70 0 0.0 0.0 0.00 0.06 0.06 92 1014.2
20260904025025 69 0 0.0 0.0 0.00 0.06 0.06 92 1014.2
20260904024825 69 0 0.0 0.0 0.00 0.06 0.06 92 1014.1
20260904024624 70 0 0.0 0.0 0.00 0.06 0.06 92 1014.1
20260904024424 70 0 0.0 0.0 0.00 0.06 0.06 92 1014.1
20260904024224 70 0 0.0 0.0 0.00 0.06 0.06 92 1014.2
20260904024023 70 0 0.0 0.0 0.00 0.06 0.06 92 1014.1
20260904023823 70 0 0.0 0.0 0.00 0.06 0.06 92 1014.1
20260904023623 70 0 0.0 0.0 0.00 0.06 0.06 92 1014.1
20260904023422 69 0 0.0 0.0 0.00 0.06 0.06 92 1014.2
20260904023222 69 0 0.0 0.0 0.00 0.06 0.06 92 1014.1
20260904023022 69 0 0.0 0.0 0.00 0.06 0.06 92 1014.0
20260904022822 69 0 0.0 0.0 0.00 0.06 0.06 92 1014.0
20260904022621 69 0 0.0 0.0 0.00 0.06 0.06 92 1014.0
20260904022421 69 0 0.0 0.0 0.00 0.06 0.06 92 1014.0
20260904022221 69 0 0.0 0.0 0.00 0.06 0.06 92 1014.1
20260904022020 69 0 0.0 0.0 0.00 0.06 0.06 92 1014.1
20260904021820 69 0 0.0 0.0 0.00 0.06 0.06 93 1014.1
20260904021620 69 0 0.0 0.0 0.00 0.06 0.06 93 1014.2
20260904021419 69 0 0.0 0.0 0.00 0.06 0.06 93 1014.2
20260904021219 69 0 0.0 0.0 0.00 0.06 0.06 92 1014.2
20260904021019 69 0 0.0 0.0 0.00 0.06 0.06 92 1014.3
20260904020818 69 0 0.0 0.0 0.00 0.06 0.06 92 1014.2
20260904020618 69 0 0.0 0.0 0.00 0.06 0.06 92 1014.2
20260904020418 69 0 0.0 0.0 0.00 0.06 0.06 92 1014.2
20260904020218 70 0 0.0 0.0 0.00 0.06 0.06 92 1014.3
20260904020017 70 0 0.0 0.0 0.00 0.06 0.06 92 1014.3
20260904015817 70 0 0.0 0.0 0.00 0.06 0.06 92 1014.3
20260904015617 70 0 0.0 0.0 0.00 0.06 0.06 92 1014.3
20260904015416 70 0 0.0 0.0 0.00 0.06 0.06 92 1014.3
20260904015216 70 0 0.0 0.0 0.00 0.06 0.06 92 1014.2
20260904015016 70 0 0.0 0.0 0.00 0.06 0.06 91 1014.2
20260904014815 70 0 0.0 0.0 0.00 0.06 0.06 91 1014.2
20260904014615 70 0 0.0 0.0 0.00 0.06 0.06 91 1014.1
20260904014415 70 0 0.0 0.0 0.00 0.06 0.06 91 1014.1
20260904014214 70 0 0.0 0.0 0.00 0.06 0.06 91 1014.0
20260904014014 70 0 0.0 0.0 0.00 0.06 0.06 91 1014.0
20260904013814 71 0 0.0 0.0 0.00 0.06 0.06 91 1013.9
20260904013613 71 0 0.0 0.0 0.00 0.06 0.06 91 1014.0
20260904013413 71 0 0.0 0.0 0.00 0.06 0.06 91 1014.0
20260904013213 71 0 0.0 0.0 0.00 0.06 0.06 91 1013.9
20260904013012 71 0 0.0 0.0 0.00 0.06 0.06 91 1013.9
20260904012812 71 0 0.0 0.0 0.00 0.06 0.06 90 1013.9
20260904012612 71 0 0.0 0.0 0.00 0.06 0.06 90 1013.9
20260904012412 71 0 0.0 0.0 0.00 0.06 0.06 90 1013.9
20260904012211 72 0 0.0 0.0 0.00 0.06 0.06 90 1013.9
20260904012011 72 0 0.0 0.0 0.00 0.06 0.06 90 1013.7
20260904011811 72 0 0.0 0.0 0.00 0.06 0.06 89 1013.7
20260904011610 72 0 0.0 0.0 0.00 0.06 0.06 89 1013.7
20260904011410 72 0 0.0 0.0 0.00 0.06 0.06 89 1013.6
20260904011210 72 0 0.0 0.0 0.00 0.06 0.06 89 1013.6
20260904011009 72 0 0.0 0.0 0.00 0.06 0.06 89 1013.5
20260904010809 72 0 0.0 0.0 0.00 0.06 0.06 89 1013.5
20260904010609 72 0 0.0 0.0 0.00 0.06 0.06 89 1013.5
20260904010408 73 0 0.0 0.0 0.00 0.06 0.06 89 1013.5
20260904010208 73 0 0.0 0.0 0.00 0.06 0.06 89 1013.5
20260904010008 73 0 0.0 0.0 0.00 0.06 0.06 89 1013.6
20260904005808 73 0 0.0 0.9 0.00 0.12 0.06 89 1013.5
20260904005607 73 0 0.0 0.9 0.00 0.12 0.06 89 1013.5
20260904005407 73 0 0.0 1.7 0.00 0.12 0.06 89 1013.4
20260904005207 74 0 0.0 1.7 0.00 0.12 0.06 89 1013.5
20260904005006 74 43 0.0 1.7 0.00 0.12 0.06 89 1013.5
20260904004806 74 43 0.0 1.7 0.00 0.12 0.06 89 1013.4
20260904004606 74 44 0.9 1.7 0.00 0.12 0.06 89 1013.3
20260904004405 74 51 0.0 1.7 0.00 0.12 0.06 89 1013.3
20260904004205 74 56 0.0 1.7 0.00 0.12 0.06 90 1013.2
20260904004005 74 40 0.9 3.5 0.00 0.12 0.06 90 1013.1
20260904003804 74 32 0.0 3.5 0.00 0.12 0.06 91 1013.1
20260904003604 74 33 0.0 3.5 0.00 0.12 0.06 92 1013.0
20260904003404 74 33 0.0 3.5 0.00 0.12 0.06 92 1013.0
20260904003203 73 54 0.9 3.5 0.00 0.12 0.06 93 1012.9
20260904003003 73 77 0.0 3.5 0.00 0.12 0.06 94 1012.9
20260904002803 73 0 0.0 0.0 0.00 0.12 0.06 94 1012.9
20260904002602 74 0 0.0 0.0 0.00 0.12 0.06 94 1013.0
20260904002402 74 0 0.0 0.0 0.00 0.12 0.06 94 1012.9
20260904002202 74 0 0.0 0.0 0.00 0.12 0.06 94 1012.8
20260904002002 74 0 0.0 0.0 0.00 0.12 0.06 94 1012.7
20260904001801 74 0 0.0 0.0 0.00 0.12 0.06 94 1012.6
20260904001601 74 0 0.0 0.0 0.00 0.12 0.06 94 1012.6
20260904001401 74 0 0.0 0.0 0.00 0.12 0.06 94 1012.6
20260904001200 74 0 0.0 0.0 0.00 0.12 0.06 94 1012.6
20260904001000 74 0 0.0 0.0 0.00 0.12 0.06 94 1012.7
20260904000800 75 0 0.0 0.0 0.00 0.12 0.06 94 1012.7
20260904000559 75 0 0.0 0.0 0.00 0.12 0.06 94 1012.7
20260904000359 75 0 0.0 0.0 0.00 0.12 0.06 93 1012.7
20260904000159 75 0 0.0 0.0 0.00 0.12 0.06 93 1012.7
20260903235958 75 0 0.0 0.0 0.00 0.12 0.06 93 1012.8
20260903235758 75 0 0.0 0.0 0.00 0.12 0.06 93 1012.9
20260903235558 75 0 0.0 0.9 0.00 0.12 0.06 93 1012.9
20260903235358 75 0 0.0 0.9 0.00 0.12 0.06 92 1013.1
20260903235157 75 0 0.0 0.9 0.00 0.12 0.06 93 1013.1
20260903234957 75 352 0.0 0.9 0.00 0.12 0.06 93 1013.1
20260903234757 75 352 0.0 0.9 0.01 0.12 0.06 93 1013.2
20260903234556 75 352 0.0 0.9 0.06 0.12 0.06 94 1013.2
20260903234356 75 352 0.0 0.9 0.06 0.12 0.06 94 1013.2
20260903234156 75 352 0.0 0.9 0.06 0.12 0.06 94 1013.2
20260903233955 75 0 0.0 0.9 0.06 0.12 0.06 94 1013.2
20260903233755 75 0 0.0 0.9 0.06 0.12 0.06 94 1013.2
20260903233555 75 352 0.0 0.9 0.06 0.12 0.06 94 1013.2
20260903233354 75 352 0.0 1.7 0.06 0.12 0.06 94 1013.0
20260903233154 75 352 0.0 1.7 0.06 0.12 0.06 93 1012.9
20260903232954 75 352 0.0 1.7 0.06 0.12 0.06 94 1012.8
20260903232753 75 352 0.0 1.7 0.06 0.12 0.06 94 1012.9